"Sample Date","Sample Time","Sensor Name","Sample Value","Units","Flow Rate","Sample Interval","Sample Volume","Laser Status","Number Channels","Micron Size 0","Counts/Channel 0","Micron Size 1","Counts/Channel 1","Micron Size 2","Counts/Channel 2","Micron Size 3","Counts/Channel 3","Micron Size 4","Counts/Channel 4","Micron Size 5","Counts/Channel 5","Micron Size 6","Counts/Channel 6","Micron Size 7","Counts/Channel 7","Micron Size 8","Counts/Channel 8","Micron Size 9","Counts/Channel 9","Micron Size 10","Counts/Channel 10","Micron Size 11","Counts/Channel 11","Micron Size 12","Counts/Channel 12","Micron Size 13","Counts/Channel 13","Micron Size 14","Counts/Channel 14","Micron Size 15","Counts/Channel 15","Micron Size 16","Counts/Channel 16","Micron Size 17","Counts/Channel 17","Micron Size 18","Counts/Channel 18","Micron Size 19","Counts/Channel 19","Micron Size 20","Counts/Channel 20","Micron Size 21","Counts/Channel 21","Micron Size 22","Counts/Channel 22","Micron Size 23","Counts/Channel 23","Micron Size 24","Counts/Channel 24","Micron Size 25","Counts/Channel 25","Micron Size 26","Counts/Channel 26","Micron Size 27","Counts/Channel 27","Micron Size 28","Counts/Channel 28","Micron Size 29","Counts/Channel 29","Micron Size 30","Counts/Channel 30","Micron Size 31","Counts/Channel 31"
"07/09/06","05:00:01","AMMA06",28677.000,"cc",28322.879,6.00,2832.288,1,6,0.100,16790.000,0.200,10409.000,0.300,1173.000,0.500,203.000,1.000,102.000,5.000,0
"07/09/06","05:00:07","AMMA06",29565.000,"cc",28338.729,6.00,2833.873,1,6,0.100,17245.000,0.200,10616.000,0.300,1343.000,0.500,249.000,1.000,112.000,5.000,0
"07/09/06","05:00:13","AMMA06",29717.000,"cc",28298.961,6.00,2829.896,1,6,0.100,17569.000,0.200,10429.000,0.300,1322.000,0.500,266.000,1.000,131.000,5.000,0
"07/09/06","05:00:19","AMMA06",29157.000,"cc",28301.348,6.00,2830.135,1,6,0.100,17042.000,0.200,10560.000,0.300,1239.000,0.500,205.000,1.000,111.000,5.000,0
"07/09/06","05:00:25","AMMA06",29242.000,"cc",28315.889,6.00,2831.589,1,6,0.100,17182.000,0.200,10489.000,0.300,1256.000,0.500,205.000,1.000,110.000,5.000,0
"07/09/06","05:00:31","AMMA06",28940.000,"cc",28358.311,6.00,2835.831,1,6,0.100,16955.000,0.200,10401.000,0.300,1298.000,0.500,191.000,1.000,95.000,5.000,0
"07/09/06","05:00:37","AMMA06",29232.000,"cc",28288.959,6.00,2828.896,1,6,0.100,16860.000,0.200,10750.000,0.300,1272.000,0.500,221.000,1.000,129.000,5.000,0
"07/09/06","05:00:43","AMMA06",28841.000,"cc",28316.463,6.00,2831.647,1,6,0.100,16769.000,0.200,10512.000,0.300,1275.000,0.500,183.000,1.000,101.000,5.000,1.000
"07/09/06","05:00:49","AMMA06",29083.000,"cc",28325.121,6.00,2832.512,1,6,0.100,16972.000,0.200,10615.000,0.300,1205.000,0.500,189.000,1.000,102.000,5.000,0
"07/09/06","05:00:55","AMMA06",29531.000,"cc",28316.854,6.00,2831.686,1,6,0.100,17279.000,0.200,10516.000,0.300,1410.000,0.500,219.000,1.000,107.000,5.000,0
"07/09/06","05:01:01","AMMA06",31213.000,"cc",28299.148,6.00,2829.915,1,6,0.100,17858.000,0.200,10962.000,0.300,1701.000,0.500,503.000,1.000,189.000,5.000,0
"07/09/06","05:01:07","AMMA06",29342.000,"cc",28313.920,6.00,2831.392,1,6,0.100,17146.000,0.200,10458.000,0.300,1360.000,0.500,234.000,1.000,144.000,5.000,0
"07/09/06","05:01:13","AMMA06",28741.000,"cc",28318.523,6.00,2831.853,1,6,0.100,16672.000,0.200,10497.000,0.300,1245.000,0.500,203.000,1.000,124.000,5.000,0
"07/09/06","05:01:19","AMMA06",29017.000,"cc",28310.174,6.00,2831.018,1,6,0.100,16978.000,0.200,10511.000,0.300,1240.000,0.500,193.000,1.000,95.000,5.000,0
"07/09/06","05:01:25","AMMA06",29147.000,"cc",28290.303,6.00,2829.031,1,6,0.100,17002.000,0.200,10580.000,0.300,1267.000,0.500,195.000,1.000,103.000,5.000,0
"07/09/06","05:01:31","AMMA06",28822.000,"cc",28286.615,6.00,2828.662,1,6,0.100,16828.000,0.200,10538.000,0.300,1188.000,0.500,187.000,1.000,81.000,5.000,0
"07/09/06","05:01:37","AMMA06",29528.000,"cc",28319.955,6.00,2831.996,1,6,0.100,17158.000,0.200,10629.000,0.300,1377.000,0.500,252.000,1.000,112.000,5.000,0
"07/09/06","05:01:43","AMMA06",29803.000,"cc",28363.545,6.00,2836.355,1,6,0.100,17141.000,0.200,10771.000,0.300,1455.000,0.500,288.000,1.000,148.000,5.000,0
"07/09/06","05:01:49","AMMA06",29474.000,"cc",28338.424,6.00,2833.843,1,6,0.100,16961.000,0.200,10813.000,0.300,1346.000,0.500,238.000,1.000,116.000,5.000,0
"07/09/06","05:01:55","AMMA06",29071.000,"cc",28344.861,6.00,2834.486,1,6,0.100,16738.000,0.200,10563.000,0.300,1375.000,0.500,253.000,1.000,142.000,5.000,0
"07/09/06","05:02:01","AMMA06",28957.000,"cc",28271.133,6.00,2827.114,1,6,0.100,16906.000,0.200,10499.000,0.300,1260.000,0.500,182.000,1.000,110.000,5.000,0
"07/09/06","05:02:07","AMMA06",28714.000,"cc",28305.563,6.00,2830.556,1,6,0.100,16634.000,0.200,10544.000,0.300,1226.000,0.500,205.000,1.000,105.000,5.000,0
"07/09/06","05:02:13","AMMA06",29065.000,"cc",28303.463,6.00,2830.346,1,6,0.100,16740.000,0.200,10684.000,0.300,1358.000,0.500,187.000,1.000,96.000,5.000,0
"07/09/06","05:02:19","AMMA06",28856.000,"cc",28291.664,6.00,2829.167,1,6,0.100,16713.000,0.200,10568.000,0.300,1266.000,0.500,199.000,1.000,110.000,5.000,0
"07/09/06","05:02:25","AMMA06",28895.000,"cc",28345.729,6.00,2834.573,1,6,0.100,16568.000,0.200,10638.000,0.300,1391.000,0.500,197.000,1.000,101.000,5.000,0
"07/09/06","05:02:31","AMMA06",29116.000,"cc",28315.473,6.00,2831.547,1,6,0.100,16735.000,0.200,10767.000,0.300,1299.000,0.500,207.000,1.000,108.000,5.000,0
"07/09/06","05:02:37","AMMA06",28876.000,"cc",28333.906,6.00,2833.391,1,6,0.100,16705.000,0.200,10495.000,0.300,1333.000,0.500,224.000,1.000,119.000,5.000,0
"07/09/06","05:02:43","AMMA06",29418.000,"cc",28331.563,6.00,2833.157,1,6,0.100,16896.000,0.200,10921.000,0.300,1309.000,0.500,182.000,1.000,110.000,5.000,0
"07/09/06","05:02:49","AMMA06",29060.000,"cc",28332.840,6.00,2833.284,1,6,0.100,16778.000,0.200,10628.000,0.300,1319.000,0.500,223.000,1.000,112.000,5.000,0
"07/09/06","05:02:55","AMMA06",29282.000,"cc",28305.297,6.00,2830.530,1,6,0.100,16833.000,0.200,10906.000,0.300,1249.000,0.500,201.000,1.000,93.000,5.000,0
"07/09/06","05:03:01","AMMA06",28825.000,"cc",28285.775,6.00,2828.578,1,6,0.100,16620.000,0.200,10643.000,0.300,1294.000,0.500,185.000,1.000,83.000,5.000,0
"07/09/06","05:03:07","AMMA06",29501.000,"cc",28298.984,6.00,2829.899,1,6,0.100,17219.000,0.200,10616.000,0.300,1333.000,0.500,206.000,1.000,127.000,5.000,0
"07/09/06","05:03:13","AMMA06",29137.000,"cc",28280.469,6.00,2828.047,1,6,0.100,16669.000,0.200,10820.000,0.300,1339.000,0.500,209.000,1.000,100.000,5.000,0
"07/09/06","05:03:19","AMMA06",29246.000,"cc",28364.334,6.00,2836.434,1,6,0.100,16935.000,0.200,10590.000,0.300,1373.000,0.500,228.000,1.000,120.000,5.000,0
"07/09/06","05:03:25","AMMA06",29396.000,"cc",28364.254,6.00,2836.426,1,6,0.100,16957.000,0.200,10765.000,0.300,1341.000,0.500,206.000,1.000,127.000,5.000,0
"07/09/06","05:03:31","AMMA06",29427.000,"cc",28291.000,6.00,2829.100,1,6,0.100,16773.000,0.200,10879.000,0.300,1398.000,0.500,247.000,1.000,130.000,5.000,0
"07/09/06","05:03:37","AMMA06",29374.000,"cc",28309.990,6.00,2830.999,1,6,0.100,16661.000,0.200,10854.000,0.300,1427.000,0.500,276.000,1.000,156.000,5.000,0
"07/09/06","05:03:43","AMMA06",29521.000,"cc",28305.924,6.00,2830.593,1,6,0.100,17018.000,0.200,10787.000,0.300,1376.000,0.500,216.000,1.000,124.000,5.000,0
"07/09/06","05:03:49","AMMA06",30637.000,"cc",28315.537,6.00,2831.554,1,6,0.100,17616.000,0.200,10959.000,0.300,1579.000,0.500,316.000,1.000,167.000,5.000,0
"07/09/06","05:03:55","AMMA06",30841.000,"cc",28267.098,6.00,2826.710,1,6,0.100,17471.000,0.200,11203.000,0.300,1657.000,0.500,372.000,1.000,138.000,5.000,0
"07/09/06","05:04:01","AMMA06",30687.000,"cc",28296.016,6.00,2829.602,1,6,0.100,17390.000,0.200,11185.000,0.300,1595.000,0.500,348.000,1.000,169.000,5.000,0
"07/09/06","05:04:07","AMMA06",30125.000,"cc",28337.176,6.00,2833.718,1,6,0.100,17212.000,0.200,10900.000,0.300,1540.000,0.500,316.000,1.000,157.000,5.000,0
"07/09/06","05:04:13","AMMA06",29566.000,"cc",28335.877,6.00,2833.588,1,6,0.100,16868.000,0.200,10905.000,0.300,1380.000,0.500,284.000,1.000,129.000,5.000,0
"07/09/06","05:04:19","AMMA06",29107.000,"cc",28312.508,6.00,2831.251,1,6,0.100,16959.000,0.200,10631.000,0.300,1217.000,0.500,192.000,1.000,108.000,5.000,0
"07/09/06","05:04:25","AMMA06",30187.000,"cc",28330.336,6.00,2833.034,1,6,0.100,17381.000,0.200,10749.000,0.300,1582.000,0.500,338.000,1.000,137.000,5.000,0
"07/09/06","05:04:31","AMMA06",29818.000,"cc",28319.498,6.00,2831.950,1,6,0.100,17130.000,0.200,10797.000,0.300,1468.000,0.500,293.000,1.000,130.000,5.000,0
"07/09/06","05:04:37","AMMA06",29227.000,"cc",28375.104,6.00,2837.511,1,6,0.100,16841.000,0.200,10684.000,0.300,1360.000,0.500,219.000,1.000,123.000,5.000,0
"07/09/06","05:04:43","AMMA06",29551.000,"cc",28279.645,6.00,2827.965,1,6,0.100,17028.000,0.200,10764.000,0.300,1398.000,0.500,254.000,1.000,107.000,5.000,0
"07/09/06","05:04:49","AMMA06",28989.000,"cc",28258.344,6.00,2825.835,1,6,0.100,16691.000,0.200,10592.000,0.300,1340.000,0.500,249.000,1.000,117.000,5.000,0
"07/09/06","05:04:55","AMMA06",28848.000,"cc",28362.910,6.00,2836.291,1,6,0.100,16688.000,0.200,10572.000,0.300,1279.000,0.500,206.000,1.000,103.000,5.000,0
"07/09/06","05:05:01","AMMA06",29988.000,"cc",28345.531,6.00,2834.553,1,6,0.100,17155.000,0.200,10690.000,0.300,1622.000,0.500,346.000,1.000,175.000,5.000,0
"07/09/06","05:05:07","AMMA06",29267.000,"cc",28319.469,6.00,2831.947,1,6,0.100,16837.000,0.200,10720.000,0.300,1366.000,0.500,224.000,1.000,120.000,5.000,0
"07/09/06","05:05:13","AMMA06",29321.000,"cc",28292.787,6.00,2829.279,1,6,0.100,16749.000,0.200,10761.000,0.300,1406.000,0.500,277.000,1.000,128.000,5.000,0
"07/09/06","05:05:19","AMMA06",29981.000,"cc",28292.676,6.00,2829.268,1,6,0.100,17362.000,0.200,10856.000,0.300,1371.000,0.500,250.000,1.000,142.000,5.000,0
"07/09/06","05:05:25","AMMA06",33205.000,"cc",28370.887,6.00,2837.089,1,6,0.100,18441.000,0.200,11609.000,0.300,2177.000,0.500,700.000,1.000,278.000,5.000,0
"07/09/06","05:05:31","AMMA06",31741.000,"cc",28314.053,6.00,2831.406,1,6,0.100,17851.000,0.200,11031.000,0.300,2034.000,0.500,595.000,1.000,230.000,5.000,0
"07/09/06","05:05:37","AMMA06",30141.000,"cc",28348.885,6.00,2834.889,1,6,0.100,17455.000,0.200,10749.000,0.300,1469.000,0.500,307.000,1.000,161.000,5.000,0
"07/09/06","05:05:43","AMMA06",30039.000,"cc",28318.545,6.00,2831.855,1,6,0.100,17245.000,0.200,10748.000,0.300,1542.000,0.500,347.000,1.000,157.000,5.000,0
"07/09/06","05:05:49","AMMA06",30612.000,"cc",28274.908,6.00,2827.491,1,6,0.100,17554.000,0.200,10887.000,0.300,1573.000,0.500,387.000,1.000,211.000,5.000,0
"07/09/06","05:05:55","AMMA06",29575.000,"cc",28281.807,6.00,2828.181,1,6,0.100,17145.000,0.200,10664.000,0.300,1383.000,0.500,254.000,1.000,129.000,5.000,0
"07/09/06","05:06:01","AMMA06",29106.000,"cc",28259.961,6.00,2825.996,1,6,0.100,16762.000,0.200,10684.000,0.300,1322.000,0.500,225.000,1.000,113.000,5.000,0
"07/09/06","05:06:07","AMMA06",30864.000,"cc",28384.373,6.00,2838.438,1,6,0.100,17632.000,0.200,11085.000,0.300,1597.000,0.500,377.000,1.000,173.000,5.000,0
"07/09/06","05:06:13","AMMA06",29786.000,"cc",28358.633,6.00,2835.864,1,6,0.100,17054.000,0.200,10811.000,0.300,1454.000,0.500,304.000,1.000,163.000,5.000,0
"07/09/06","05:06:19","AMMA06",31538.000,"cc",28298.873,6.00,2829.888,1,6,0.100,17796.000,0.200,11178.000,0.300,1798.000,0.500,526.000,1.000,240.000,5.000,0
"07/09/06","05:06:25","AMMA06",30758.000,"cc",28278.043,6.00,2827.804,1,6,0.100,17379.000,0.200,11067.000,0.300,1701.000,0.500,416.000,1.000,195.000,5.000,0
"07/09/06","05:06:31","AMMA06",30486.000,"cc",28336.531,6.00,2833.653,1,6,0.100,17244.000,0.200,11088.000,0.300,1600.000,0.500,382.000,1.000,172.000,5.000,0
"07/09/06","05:06:37","AMMA06",29430.000,"cc",28333.461,6.00,2833.346,1,6,0.100,16849.000,0.200,10677.000,0.300,1473.000,0.500,289.000,1.000,142.000,5.000,0
"07/09/06","05:06:43","AMMA06",29624.000,"cc",28340.565,6.00,2834.057,1,6,0.100,16991.000,0.200,10741.000,0.300,1431.000,0.500,320.000,1.000,141.000,5.000,0
"07/09/06","05:06:49","AMMA06",29950.000,"cc",28336.781,6.00,2833.678,1,6,0.100,17185.000,0.200,10914.000,0.300,1414.000,0.500,299.000,1.000,138.000,5.000,0
"07/09/06","05:06:55","AMMA06",29926.000,"cc",28297.303,6.00,2829.731,1,6,0.100,17109.000,0.200,10814.000,0.300,1494.000,0.500,366.000,1.000,143.000,5.000,0
"07/09/06","05:07:01","AMMA06",29519.000,"cc",28338.334,6.00,2833.834,1,6,0.100,17115.000,0.200,10584.000,0.300,1389.000,0.500,284.000,1.000,147.000,5.000,0
"07/09/06","05:07:07","AMMA06",31509.000,"cc",28250.332,6.00,2825.033,1,6,0.100,17783.000,0.200,11244.000,0.300,1771.000,0.500,509.000,1.000,202.000,5.000,0
"07/09/06","05:07:13","AMMA06",30521.000,"cc",28344.188,6.00,2834.419,1,6,0.100,17625.000,0.200,10781.000,0.300,1558.000,0.500,365.000,1.000,192.000,5.000,0
"07/09/06","05:07:19","AMMA06",30168.000,"cc",28333.297,6.00,2833.330,1,6,0.100,17360.000,0.200,10804.000,0.300,1470.000,0.500,371.000,1.000,163.000,5.000,0
"07/09/06","05:07:25","AMMA06",29365.000,"cc",28356.586,6.00,2835.659,1,6,0.100,16997.000,0.200,10612.000,0.300,1371.000,0.500,265.000,1.000,120.000,5.000,0
"07/09/06","05:07:31","AMMA06",29055.000,"cc",28328.775,6.00,2832.878,1,6,0.100,16700.000,0.200,10695.000,0.300,1309.000,0.500,225.000,1.000,126.000,5.000,0
"07/09/06","05:07:37","AMMA06",28892.000,"cc",28257.723,6.00,2825.773,1,6,0.100,16717.000,0.200,10424.000,0.300,1345.000,0.500,268.000,1.000,138.000,5.000,0
"07/09/06","05:07:43","AMMA06",29528.000,"cc",28291.022,6.00,2829.102,1,6,0.100,17083.000,0.200,10628.000,0.300,1401.000,0.500,264.000,1.000,152.000,5.000,0
"07/09/06","05:07:49","AMMA06",29282.000,"cc",28344.877,6.00,2834.488,1,6,0.100,16986.000,0.200,10609.000,0.300,1308.000,0.500,241.000,1.000,138.000,5.000,0
"07/09/06","05:07:55","AMMA06",28812.000,"cc",28328.281,6.00,2832.828,1,6,0.100,16737.000,0.200,10430.000,0.300,1324.000,0.500,210.000,1.000,111.000,5.000,0
"07/09/06","05:08:01","AMMA06",28562.000,"cc",28338.807,6.00,2833.881,1,6,0.100,16547.000,0.200,10448.000,0.300,1246.000,0.500,212.000,1.000,109.000,5.000,0
"07/09/06","05:08:07","AMMA06",28795.000,"cc",28305.912,6.00,2830.591,1,6,0.100,16623.000,0.200,10507.000,0.300,1354.000,0.500,206.000,1.000,105.000,5.000,0
"07/09/06","05:08:13","AMMA06",29047.000,"cc",28299.111,6.00,2829.911,1,6,0.100,16816.000,0.200,10605.000,0.300,1301.000,0.500,215.000,1.000,110.000,5.000,0
"07/09/06","05:08:19","AMMA06",29038.000,"cc",28317.039,6.00,2831.704,1,6,0.100,16867.000,0.200,10595.000,0.300,1264.000,0.500,201.000,1.000,111.000,5.000,0
"07/09/06","05:08:25","AMMA06",29419.000,"cc",28283.295,6.00,2828.330,1,6,0.100,16956.000,0.200,10670.000,0.300,1356.000,0.500,283.000,1.000,154.000,5.000,0
"07/09/06","05:08:31","AMMA06",29938.000,"cc",28332.078,6.00,2833.208,1,6,0.100,17069.000,0.200,10864.000,0.300,1546.000,0.500,320.000,1.000,139.000,5.000,0
"07/09/06","05:08:37","AMMA06",29393.000,"cc",28288.141,6.00,2828.814,1,6,0.100,17035.000,0.200,10746.000,0.300,1269.000,0.500,238.000,1.000,105.000,5.000,0
"07/09/06","05:08:43","AMMA06",29240.000,"cc",28302.221,6.00,2830.222,1,6,0.100,17050.000,0.200,10541.000,0.300,1326.000,0.500,216.000,1.000,107.000,5.000,0
"07/09/06","05:08:49","AMMA06",29157.000,"cc",28340.156,6.00,2834.016,1,6,0.100,16685.000,0.200,10739.000,0.300,1333.000,0.500,271.000,1.000,129.000,5.000,0
"07/09/06","05:08:55","AMMA06",29015.000,"cc",28358.365,6.00,2835.837,1,6,0.100,16681.000,0.200,10653.000,0.300,1347.000,0.500,219.000,1.000,115.000,5.000,0
"07/09/06","05:09:01","AMMA06",28940.000,"cc",28292.147,6.00,2829.215,1,6,0.100,16801.000,0.200,10428.000,0.300,1347.000,0.500,233.000,1.000,131.000,5.000,0
"07/09/06","05:09:07","AMMA06",29231.000,"cc",28313.670,6.00,2831.367,1,6,0.100,16837.000,0.200,10644.000,0.300,1381.000,0.500,241.000,1.000,128.000,5.000,0
"07/09/06","05:09:13","AMMA06",29038.000,"cc",28351.732,6.00,2835.173,1,6,0.100,16782.000,0.200,10655.000,0.300,1255.000,0.500,193.000,1.000,153.000,5.000,0
"07/09/06","05:09:19","AMMA06",29564.000,"cc",28285.879,6.00,2828.588,1,6,0.100,16993.000,0.200,10685.000,0.300,1450.000,0.500,287.000,1.000,149.000,5.000,0
"07/09/06","05:09:25","AMMA06",29281.000,"cc",28303.453,6.00,2830.346,1,6,0.100,16978.000,0.200,10512.000,0.300,1413.000,0.500,243.000,1.000,135.000,5.000,0
"07/09/06","05:09:31","AMMA06",28928.000,"cc",28365.117,6.00,2836.512,1,6,0.100,16681.000,0.200,10490.000,0.300,1380.000,0.500,237.000,1.000,140.000,5.000,0
"07/09/06","05:09:37","AMMA06",28931.000,"cc",28282.350,6.00,2828.235,1,6,0.100,16724.000,0.200,10613.000,0.300,1255.000,0.500,218.000,1.000,121.000,5.000,0
"07/09/06","05:09:43","AMMA06",29062.000,"cc",28310.604,6.00,2831.061,1,6,0.100,16639.000,0.200,10722.000,0.300,1342.000,0.500,232.000,1.000,127.000,5.000,0
"07/09/06","05:09:49","AMMA06",29339.000,"cc",28289.756,6.00,2828.976,1,6,0.100,16734.000,0.200,10834.000,0.300,1390.000,0.500,249.000,1.000,132.000,5.000,0
"07/09/06","05:09:55","AMMA06",32071.000,"cc",28337.828,6.00,2833.783,1,6,0.100,18074.000,0.200,11190.000,0.300,1950.000,0.500,578.000,1.000,279.000,5.000,0
"07/09/06","05:10:01","AMMA06",32078.000,"cc",28395.418,6.00,2839.542,1,6,0.100,17957.000,0.200,11408.000,0.300,1914.000,0.500,569.000,1.000,230.000,5.000,0
"07/09/06","05:10:07","AMMA06",31288.000,"cc",28226.600,6.00,2822.660,1,6,0.100,17545.000,0.200,11229.000,0.300,1749.000,0.500,519.000,1.000,246.000,5.000,0
"07/09/06","05:10:13","AMMA06",30620.000,"cc",28335.385,6.00,2833.539,1,6,0.100,17348.000,0.200,11148.000,0.300,1550.000,0.500,386.000,1.000,188.000,5.000,0
"07/09/06","05:10:19","AMMA06",30087.000,"cc",28306.600,6.00,2830.660,1,6,0.100,17198.000,0.200,10849.000,0.300,1527.000,0.500,342.000,1.000,171.000,5.000,0
"07/09/06","05:10:25","AMMA06",33228.000,"cc",28349.791,6.00,2834.979,1,6,0.100,18128.000,0.200,11745.000,0.300,2239.000,0.500,769.000,1.000,347.000,5.000,0
"07/09/06","05:10:31","AMMA06",31457.000,"cc",28313.984,6.00,2831.399,1,6,0.100,17781.000,0.200,11269.000,0.300,1739.000,0.500,447.000,1.000,221.000,5.000,0
"07/09/06","05:10:37","AMMA06",31568.000,"cc",28339.857,6.00,2833.986,1,6,0.100,17791.000,0.200,11422.000,0.300,1712.000,0.500,434.000,1.000,209.000,5.000,0
"07/09/06","05:10:43","AMMA06",30624.000,"cc",28320.795,6.00,2832.080,1,6,0.100,17424.000,0.200,11100.000,0.300,1603.000,0.500,350.000,1.000,147.000,5.000,0
"07/09/06","05:10:49","AMMA06",30437.000,"cc",28281.889,6.00,2828.189,1,6,0.100,17225.000,0.200,11060.000,0.300,1594.000,0.500,377.000,1.000,181.000,5.000,0
"07/09/06","05:10:55","AMMA06",32731.000,"cc",28326.248,6.00,2832.625,1,6,0.100,18002.000,0.200,11752.000,0.300,2099.000,0.500,601.000,1.000,277.000,5.000,0
"07/09/06","05:11:01","AMMA06",32803.000,"cc",28315.127,6.00,2831.513,1,6,0.100,18215.000,0.200,11698.000,0.300,2054.000,0.500,613.000,1.000,223.000,5.000,0
"07/09/06","05:11:07","AMMA06",35553.000,"cc",28313.844,6.00,2831.385,1,6,0.100,19232.000,0.200,12491.000,0.300,2469.000,0.500,960.000,1.000,401.000,5.000,0
"07/09/06","05:11:13","AMMA06",31810.000,"cc",28316.043,6.00,2831.605,1,6,0.100,17677.000,0.200,11586.000,0.300,1849.000,0.500,492.000,1.000,206.000,5.000,0
"07/09/06","05:11:19","AMMA06",32021.000,"cc",28329.813,6.00,2832.981,1,6,0.100,17673.000,0.200,11584.000,0.300,1924.000,0.500,570.000,1.000,270.000,5.000,0
"07/09/06","05:11:25","AMMA06",31571.000,"cc",28351.395,6.00,2835.140,1,6,0.100,17696.000,0.200,11447.000,0.300,1754.000,0.500,475.000,1.000,199.000,5.000,0
"07/09/06","05:11:31","AMMA06",30901.000,"cc",28286.834,6.00,2828.684,1,6,0.100,17361.000,0.200,11141.000,0.300,1765.000,0.500,424.000,1.000,210.000,5.000,0
"07/09/06","05:11:37","AMMA06",32579.000,"cc",28266.600,6.00,2826.660,1,6,0.100,18224.000,0.200,11755.000,0.300,1879.000,0.500,493.000,1.000,228.000,5.000,0
"07/09/06","05:11:43","AMMA06",31612.000,"cc",28333.305,6.00,2833.331,1,6,0.100,17851.000,0.200,11375.000,0.300,1775.000,0.500,422.000,1.000,189.000,5.000,0
"07/09/06","05:11:49","AMMA06",33711.000,"cc",28300.615,6.00,2830.062,1,6,0.100,18388.000,0.200,12061.000,0.300,2224.000,0.500,706.000,1.000,331.000,5.000,1.000
"07/09/06","05:11:55","AMMA06",42100.000,"cc",28423.340,6.00,2842.334,1,6,0.100,24322.000,0.200,13722.000,0.300,2767.000,0.500,900.000,1.000,389.000,5.000,0
"07/09/06","05:12:01","AMMA06",34731.000,"cc",28263.641,6.00,2826.364,1,6,0.100,19867.000,0.200,12112.000,0.300,1971.000,0.500,531.000,1.000,250.000,5.000,0
"07/09/06","05:12:07","AMMA06",30964.000,"cc",28283.453,6.00,2828.346,1,6,0.100,17329.000,0.200,11491.000,0.300,1635.000,0.500,324.000,1.000,185.000,5.000,0
"07/09/06","05:12:13","AMMA06",30078.000,"cc",28310.311,6.00,2831.031,1,6,0.100,16949.000,0.200,11274.000,0.300,1456.000,0.500,258.000,1.000,141.000,5.000,0
"07/09/06","05:12:19","AMMA06",29793.000,"cc",28343.961,6.00,2834.396,1,6,0.100,16726.000,0.200,11215.000,0.300,1453.000,0.500,261.000,1.000,138.000,5.000,0
"07/09/06","05:12:25","AMMA06",29554.000,"cc",28304.303,6.00,2830.430,1,6,0.100,16762.000,0.200,11054.000,0.300,1382.000,0.500,239.000,1.000,117.000,5.000,0
"07/09/06","05:12:31","AMMA06",30274.000,"cc",28298.861,6.00,2829.886,1,6,0.100,16889.000,0.200,11365.000,0.300,1531.000,0.500,342.000,1.000,147.000,5.000,0
"07/09/06","05:12:37","AMMA06",31081.000,"cc",28311.229,6.00,2831.123,1,6,0.100,17433.000,0.200,11468.000,0.300,1608.000,0.500,376.000,1.000,196.000,5.000,0
"07/09/06","05:12:43","AMMA06",30357.000,"cc",28301.465,6.00,2830.147,1,6,0.100,17142.000,0.200,11194.000,0.300,1555.000,0.500,317.000,1.000,149.000,5.000,0
"07/09/06","05:12:49","AMMA06",30742.000,"cc",28348.695,6.00,2834.870,1,6,0.100,17087.000,0.200,11388.000,0.300,1723.000,0.500,397.000,1.000,147.000,5.000,0
"07/09/06","05:12:55","AMMA06",33491.000,"cc",28345.938,6.00,2834.594,1,6,0.100,18428.000,0.200,11990.000,0.300,2162.000,0.500,649.000,1.000,262.000,5.000,0
"07/09/06","05:13:01","AMMA06",31787.000,"cc",28315.104,6.00,2831.511,1,6,0.100,17623.000,0.200,11722.000,0.300,1784.000,0.500,464.000,1.000,194.000,5.000,0
"07/09/06","05:13:07","AMMA06",31011.000,"cc",28288.856,6.00,2828.886,1,6,0.100,17363.000,0.200,11430.000,0.300,1644.000,0.500,383.000,1.000,191.000,5.000,0
"07/09/06","05:13:13","AMMA06",31532.000,"cc",28308.125,6.00,2830.813,1,6,0.100,17713.000,0.200,11461.000,0.300,1780.000,0.500,378.000,1.000,200.000,5.000,0
"07/09/06","05:13:19","AMMA06",33094.000,"cc",28354.022,6.00,2835.402,1,6,0.100,17991.000,0.200,12112.000,0.300,2098.000,0.500,620.000,1.000,273.000,5.000,0
"07/09/06","05:13:25","AMMA06",31871.000,"cc",28280.723,6.00,2828.073,1,6,0.100,17919.000,0.200,11507.000,0.300,1781.000,0.500,452.000,1.000,212.000,5.000,0
"07/09/06","05:13:31","AMMA06",32144.000,"cc",28330.541,6.00,2833.054,1,6,0.100,17693.000,0.200,11748.000,0.300,1937.000,0.500,524.000,1.000,242.000,5.000,0
"07/09/06","05:13:37","AMMA06",33990.000,"cc",28286.168,6.00,2828.617,1,6,0.100,18462.000,0.200,12081.000,0.300,2352.000,0.500,782.000,1.000,313.000,5.000,0
"07/09/06","05:13:43","AMMA06",32292.000,"cc",28312.731,6.00,2831.273,1,6,0.100,17898.000,0.200,11775.000,0.300,1849.000,0.500,519.000,1.000,251.000,5.000,0
"07/09/06","05:13:49","AMMA06",31198.000,"cc",28342.527,6.00,2834.253,1,6,0.100,17597.000,0.200,11310.000,0.300,1626.000,0.500,445.000,1.000,220.000,5.000,0
"07/09/06","05:13:55","AMMA06",31906.000,"cc",28317.654,6.00,2831.766,1,6,0.100,17704.000,0.200,11612.000,0.300,1828.000,0.500,520.000,1.000,242.000,5.000,0
"07/09/06","05:14:01","AMMA06",31289.000,"cc",28325.664,6.00,2832.567,1,6,0.100,17574.000,0.200,11419.000,0.300,1694.000,0.500,401.000,1.000,201.000,5.000,0
"07/09/06","05:14:07","AMMA06",31477.000,"cc",28333.500,6.00,2833.350,1,6,0.100,17629.000,0.200,11462.000,0.300,1762.000,0.500,432.000,1.000,192.000,5.000,0
"07/09/06","05:14:13","AMMA06",29912.000,"cc",28299.705,6.00,2829.971,1,6,0.100,17065.000,0.200,11028.000,0.300,1444.000,0.500,252.000,1.000,123.000,5.000,0